Notices

What's New in latest Release from April 7th, 2021:

- Updated Glossary, including Speed of Maximum Gust, and Total Hourly Precipitation

- Updated national and regional climate services offices contacts and prices information

- Addition of station inventory lists for 1981-2010, 1971-2000, and 1961-1990 Normals.

Please note that as of June 10, 2021 UTC dates are available for all years 2004-present, and DBA is working on populating the remaining years (2003 to 1953).

If you haven't already, please take our survey and provide feedback about our website: https://eccc.sondage-survey.ca/f/LanguageSelection.aspx?s=442ca660-fcf1-47c0-95a9-59707d6fd709

Hourly Data Report for September 28, 2017

TORONTO CITY
ONTARIO

43°40'00.000" N
79°24'00.000" W
112.50 m
6158355
71508
XTO

Download Data

Hourly Data (September 2017)
Hourly Data Report for September 28, 2017
TIME
LST
Temp Definition
°C
Dew Point Definition
°C
Rel Hum Definition
%
Precip. Amount Definition
mm

Wind Dir Definition
10's deg

Wind Spd Definition
km/h
Visibility Definition
km
Stn Press Definition
kPa
Hmdx Definition


Wind Chill Definition


Weather Definition


00:00 15.6 7.2 57 0.0 LegendMM LegendMM   100.15     LegendNANA
01:00 14.8 6.6 58 0.0 LegendMM LegendMM   100.19     LegendNANA
02:00 14.1 5.7 57 0.0 LegendMM LegendMM   100.19     LegendNANA
03:00 13.9 5.7 58 0.0 LegendMM LegendMM   100.21     LegendNANA
04:00 13.8 5.7 58 0.0 LegendMM LegendMM   100.27     LegendNANA
05:00 13.5 6.6 63 0.0 LegendMM LegendMM   100.29     LegendNANA
06:00 13.6 6.6 63 0.0 LegendMM LegendMM   100.30     LegendNANA
07:00 13.8 6.7 62 0.0 LegendMM LegendMM   100.33     LegendNANA
08:00 14.2 6.0 58 0.0 LegendMM LegendMM   100.37     LegendNANA
09:00 14.6 5.8 56 0.0 LegendMM LegendMM   100.43     LegendNANA
10:00 15.3 6.2 54 0.0 LegendMM LegendMM   100.46     LegendNANA
11:00 15.2 5.0 50 0.0 LegendMM LegendMM   100.47     LegendNANA
12:00 16.6 5.0 46 0.0 LegendMM LegendMM   100.45     LegendNANA
13:00 16.5 4.3 44 0.0 LegendMM LegendMM   100.40     LegendNANA
14:00 16.7 4.3 44 0.0 LegendMM LegendMM   100.34     LegendNANA
15:00 17.5 3.5 39 0.0 LegendMM LegendMM   100.34     LegendNANA
16:00 16.6 4.2 44 0.0 LegendMM LegendMM   100.36     LegendNANA
17:00 16.3 3.8 43 0.0 LegendMM LegendMM   100.38     LegendNANA
18:00 14.9 4.3 49 0.0 LegendMM LegendMM   100.40     LegendNANA
19:00 14.0 4.6 53 0.0 LegendMM LegendMM   100.45     LegendNANA
20:00 13.3 4.6 56 0.0 LegendMM LegendMM   100.48     LegendNANA
21:00 12.8 4.4 56 0.0 LegendMM LegendMM   100.50     LegendNANA
22:00 12.0 4.0 58 0.0 LegendMM LegendMM   100.51     LegendNANA
23:00 11.1 4.5 64 0.0 LegendMM LegendMM   100.52     LegendNANA

Notes on Data Quality.

Legend

  • E = Estimated
  • M = Missing
  • NA = Not Available*
  • [empty] = Indicates an unobserved value
Date modified: